Temperature
3 2 2 2 2 2 2 2 3 3 3 3 3 3 3 4 4 4 4 4 4 4 5 5 5 5 5 5 5 5 5 5 4 5 5 5 5 5 6 6 6 6 6
2 2 2 2 2 2 2 2 2 2 2 2 3 3 3 3 3 3 3 4 4 4 4 4 4 4 5 5 5 5 5 4 4 4 4 4 4 5 5 5 5 5 5
2 1 1 2 1 1 2 2 2 2 2 2 2 2 2 2 3 3 3 3 3 3 3 4 4 4 4 4 4 4 4 4 4 4 4 4 4 4 4 4 4 4 5
1 1 1 1 1 1 1 1 1 1 1 1 1 2 2 2 2 2 2 2 3 3 3 3 3 3 3 4 4 4 3 3 3 3 3 3 3 3 3 4 4 4 4
1 1 1 1 1 1 1 1 1 1 1 1 1 1 1 1 2 2 2 2 2 2 3 3 3 3 3 3 3 3 3 3 3 3 3 3 3 3 3 3 3 3 3
0 0 0 0 0 0 0 0 0 0 0 0 0 0 1 1 1 1 1 1 2 2 2 2 2 2 3 3 2 2 2 2 2 2 2 2 2 2 2 2 2 2 2
-0 -0 -0 -0 -0 -0 -0 -0 -0 -0 -1 -0 -0 -0 0 0 1 1 1 1 1 1 2 2 2 2 2 2 2 2 2 2 2 2 2 2 2 2 2 2 2 2 2
-1 -1 -1 -1 -1 -1 -1 -1 -1 -1 -1 -1 -1 -1 -0 0 0 0 1 1 1 1 1 1 1 1 1 1 1 2 2 2 2 1 2 2 2 2 2 2 2 2 2
-1 -1 -1 -1 -1 -1 -1 -1 -1 -1 -1 -1 -1 -1 -1 -0 -0 -0 0 0 0 0 0 1 1 1 1 1 1 1 1 1 1 1 1 1 1 1 1 1 1 1 1
-2 -2 -2 -2 -2 -2 -2 -2 -2 -2 -2 -2 -2 -1 -1 -1 -1 -1 -0 -0 -0 -0 -0 -0 0 0 0 0 0 0 1 1 1 1 1 1 1 1 1 1 1 1 1
-2 -2 -2 -2 -2 -2 -2 -2 -2 -2 -2 -2 -2 -2 -2 -2 -2 -1 -1 -1 -1 -1 -1 -1 -0 -0 -0 -0 -0 -0 0 0 0 0 1 1 1 1 1 1 1 1 1
-3 -3 -2 -2 -2 -2 -2 -2 -2 -2 -2 -2 -2 -2 -2 -2 -2 -2 -1 -1 -1 -1 -1 -1 -1 -1 -1 -0 -0 -0 -0 -0 -0 0 0 0 0 1 1 0 0 0 1
-3 -3 -3 -3 -3 -3 -3 -3 -3 -3 -3 -3 -3 -3 -3 -2 -2 -2 -2 -2 -2 -2 -2 -2 -2 -1 -1 -1 -1 -1 -1 -0 -0 -0 -0 -0 0 0 0 0 0 0 0
-3 -3 -3 -3 -3 -3 -3 -3 -3 -3 -3 -3 -3 -3 -3 -3 -3 -3 -3 -2 -2 -2 -2 -2 -2 -2 -2 -1 -1 -1 -1 -1 -1 -1 -1 -1 -0 -0 -0 -0 -0 -0 0
-4 -4 -3 -3 -3 -3 -3 -3 -4 -4 -4 -4 -4 -4 -4 -4 -3 -3 -3 -3 -3 -3 -2 -2 -2 -2 -2 -2 -1 -1 -1 -1 -1 -1 -1 -1 -1 -1 -1 -1 -1 -0 -1
-4 -4 -4 -4 -4 -4 -4 -4 -4 -4 -4 -4 -4 -4 -4 -4 -4 -3 -3 -3 -3 -3 -3 -2 -2 -2 -2 -2 -2 -2 -2 -2 -2 -2 -1 -1 -1 -1 -1 -1 -1 -1 -1
-4 -4 -4 -4 -4 -4 -4 -4 -4 -4 -4 -4 -4 -4 -4 -4 -4 -4 -3 -3 -3 -3 -3 -3 -3 -3 -3 -3 -2 -2 -2 -2 -2 -2 -2 -2 -2 -2 -1 -1 -1 -1 -1
-4 -4 -4 -4 -4 -4 -4 -4 -4 -4 -4 -4 -4 -4 -4 -4 -4 -4 -4 -4 -3 -3 -3 -3 -3 -3 -3 -3 -3 -3 -3 -2 -2 -2 -2 -2 -2 -2 -2 -2 -2 -1 -1
-5 -5 -5 -5 -5 -5 -5 -5 -5 -5 -5 -5 -4 -4 -4 -4 -4 -4 -4 -4 -4 -4 -4 -4 -4 -4 -3 -3 -3 -3 -3 -3 -3 -3 -3 -2 -2 -2 -2 -2 -2 -2 -2
-5 -5 -5 -5 -5 -5 -5 -5 -5 -5 -5 -5 -5 -5 -5 -4 -4 -4 -4 -4 -4 -4 -4 -4 -4 -4 -4 -4 -3 -3 -3 -3 -3 -3 -3 -3 -2 -2 -2 -2 -2 -2 -2
-5 -5 -5 -5 -5 -5 -5 -5 -5 -5 -5 -5 -5 -5 -5 -5 -5 -5 -5 -5 -5 -4 -4 -4 -4 -4 -4 -4 -4 -4 -3 -3 -3 -3 -3 -3 -3 -3 -2 -2 -2 -2 -2
-5 -5 -5 -5 -6 -6 -5 -5 -5 -5 -5 -5 -5 -5 -5 -5 -5 -5 -5 -5 -5 -5 -4 -4 -4 -4 -4 -4 -4 -4 -4 -3 -3 -3 -3 -3 -3 -3 -3 -3 -3 -3 -3
-6 -6 -6 -6 -6 -6 -6 -6 -6 -6 -6 -5 -5 -5 -5 -5 -5 -5 -5 -5 -5 -5 -4 -4 -4 -4 -4 -4 -4 -4 -4 -3 -3 -3 -3 -3 -3 -3 -3 -3 -3 -3 -3
-6 -6 -6 -6 -6 -6 -6 -6 -6 -6 -6 -6 -6 -6 -6 -6 -5 -5 -5 -5 -5 -5 -5 -5 -4 -4 -4 -4 -4 -4 -4 -4 -3 -3 -3 -3 -3 -3 -3 -3 -3 -3 -3
-6 -6 -6 -6 -6 -6 -6 -6 -6 -6 -6 -6 -6 -6 -6 -6 -6 -5 -5 -5 -5 -5 -5 -5 -5 -4 -4 -4 -4 -4 -4 -3 -3 -3 -3 -3 -3 -3 -3 -3 -3 -3 -3
-6 -6 -6 -6 -6 -6 -6 -6 -6 -6 -6 -6 -6 -6 -6 -6 -6 -6 -5 -5 -5 -5 -5 -5 -5 -4 -4 -4 -4 -4 -4 -3 -3 -3 -3 -3 -3 -3 -3 -3 -3 -3 -3
Wind_Speed
2 2 2 3 2 1 1 2 2 2 2 2 1 1 2 2 2 2 2 3 3 3 2 3 4 4 3 3 3 3 4 4 5 4 3 2 2 3 3 4 4 5 7
1 1 2 2 3 2 2 2 1 2 1 2 1 2 2 2 2 2 3 3 3 3 3 3 4 4 4 4 4 4 4 4 4 5 3 2 3 3 3 3 3 4 5
2 2 2 2 3 3 3 2 2 2 2 2 2 2 2 3 3 3 3 3 3 4 3 3 3 3 5 3 3 4 3 3 3 4 4 3 2 2 2 3 3 2 3
3 3 2 2 2 3 3 2 2 2 2 2 3 3 3 2 3 3 3 2 3 3 3 3 3 4 4 4 4 4 4 3 3 3 3 3 2 2 2 2 2 2 2
3 3 3 2 3 3 3 3 3 3 3 3 3 3 2 2 2 2 2 3 3 3 3 3 3 4 5 5 4 4 4 4 3 3 3 3 3 2 2 2 2 2 3
3 4 3 3 3 3 3 3 3 3 3 3 3 3 3 3 4 5 4 3 3 3 3 3 3 4 4 5 4 5 5 6 5 4 4 4 4 3 2 1 1 1 2
3 3 4 3 3 4 4 4 4 4 3 3 3 3 3 4 5 6 5 3 3 3 3 3 3 2 2 2 3 3 4 5 6 5 5 5 5 4 3 2 2 2 3
3 3 4 4 4 4 4 4 3 3 3 3 3 3 3 4 6 6 6 3 2 3 3 2 2 2 2 1 1 2 3 3 4 4 4 5 4 3 4 4 3 2 2
4 4 4 4 4 4 4 4 4 3 4 4 3 3 3 4 5 6 6 2 2 2 2 2 2 1 2 1 1 2 2 2 2 4 4 4 4 4 3 2 2 1 2
4 4 4 4 3 4 4 4 3 3 3 4 4 4 3 3 6 6 5 2 2 2 2 2 2 2 2 2 2 2 3 2 2 2 2 2 3 3 4 4 4 3 1
4 4 4 4 4 3 3 3 3 3 3 3 4 4 3 4 5 6 6 3 2 2 2 2 2 3 3 3 2 2 2 2 2 2 2 1 1 1 2 1 2 3 3
4 4 4 4 4 4 3 3 3 3 3 3 3 4 3 4 5 6 7 6 5 2 3 3 3 4 3 3 2 2 2 1 1 1 0 1 1 1 0 0 0 1 3
4 4 4 4 4 3 3 3 3 3 2 3 3 3 4 4 5 8 8 7 7 4 3 4 5 5 3 2 2 2 1 0 0 0 0 1 1 1 1 1 1 1 1
4 4 4 3 4 3 3 3 2 3 3 3 3 4 4 4 4 4 4 4 5 4 3 4 5 5 3 3 2 2 1 0 0 0 0 1 0 1 1 1 0 0 1
3 4 4 4 4 4 4 3 3 3 3 3 3 3 4 4 5 7 5 4 3 3 3 2 2 3 3 2 2 2 2 1 1 1 0 0 0 1 0 0 1 0 1
3 4 3 3 3 3 3 4 6 5 7 7 6 5 4 6 8 8 8 7 7 5 3 2 3 2 3 3 2 2 2 1 1 1 1 0 0 1 0 0 0 1 1
3 3 3 3 3 3 3 3 4 5 7 7 8 8 7 8 8 9 8 7 7 6 3 2 2 3 3 2 2 2 2 2 1 1 1 0 0 1 0 0 1 1 1
3 3 3 2 3 3 3 3 2 3 4 5 6 8 9 9 9 9 8 7 5 5 3 3 3 3 3 2 2 2 2 2 2 1 1 0 0 1 1 1 1 1 1
3 2 2 2 3 3 3 3 2 3 3 3 4 6 9 8 9 9 8 5 4 4 4 3 3 3 2 2 2 2 2 2 2 2 1 1 0 0 0 0 1 1 1
2 4 4 3 3 3 3 3 3 3 3 3 4 4 5 6 5 6 6 5 4 4 4 4 3 3 3 3 2 2 2 2 2 2 2 1 1 1 0 0 0 0 0
2 3 5 3 2 3 3 3 2 2 2 3 3 5 7 4 4 4 4 4 4 4 4 4 3 3 3 3 2 2 2 2 2 2 2 2 1 1 1 1 1 1 1
1 2 2 2 2 2 3 2 2 3 3 3 3 4 7 5 4 4 4 4 4 4 4 3 3 3 3 3 2 2 2 2 2 2 1 1 1 1 1 1 1 1 1
1 1 2 2 2 3 3 3 3 3 3 3 3 4 4 4 4 4 5 5 5 4 4 4 4 4 4 4 3 2 2 2 2 2 1 1 1 1 1 1 1 1 1
1 1 1 2 2 2 2 3 3 3 3 3 3 3 3 4 4 4 4 4 4 4 4 4 4 4 5 5 4 4 3 3 2 2 1 0 1 1 1 1 1 2 2
1 1 1 1 2 2 2 2 3 3 3 3 3 3 3 3 4 4 4 4 4 4 5 5 5 5 5 5 5 4 4 3 2 2 2 1 1 1 1 1 1 2 2
1 1 1 1 1 1 2 2 2 3 3 3 3 3 3 3 4 4 4 4 4 4 5 5 6 6 6 6 6 5 4 4 3 3 2 1 2 2 2 1 2 2 3
Wind_Direction
38 15 355 340 324 313 294 279 275 282 265 242 246 260 266 263 259 261 266 270 266 269 273 253 245 247 244 231 221 220 225 225 247 265 263 256 249 254 271 268 257 238 242
24 12 358 339 340 329 319 312 299 289 287 274 254 247 257 266 267 260 263 269 267 266 261 260 257 252 244 233 224 222 222 221 234 257 273 264 254 237 254 268 271 256 238
16 359 355 347 349 338 339 338 336 324 318 307 283 266 264 265 264 257 256 261 269 270 267 261 262 258 251 238 226 227 229 232 230 240 258 263 261 252 249 266 265 281 254
6 358 358 356 347 339 337 338 336 325 319 313 302 290 282 279 276 272 273 280 286 286 281 274 268 260 266 253 235 227 224 228 229 230 243 250 258 253 222 232 280 300 288
5 359 357 4 353 342 342 339 335 333 330 321 314 307 298 292 284 286 284 287 282 282 283 275 266 262 266 263 251 228 219 223 225 228 233 249 254 236 224 211 258 302 294
1 353 354 4 356 341 336 341 343 342 337 331 317 315 315 309 300 301 296 281 275 270 274 273 269 258 268 267 268 256 229 218 220 225 237 236 236 231 234 228 247 290 287
356 350 352 354 348 338 339 347 346 337 328 326 321 324 326 312 306 306 306 296 281 274 270 272 281 275 279 257 270 282 259 237 225 219 224 231 229 222 216 232 249 248 261
353 352 352 350 344 341 344 343 339 331 322 320 318 317 318 314 320 317 321 312 300 288 284 273 273 282 263 270 267 266 262 248 233 225 220 230 229 212 206 224 236 256 298
352 348 347 347 342 340 341 339 333 330 328 322 314 314 316 312 324 326 323 305 306 305 299 298 280 261 283 299 267 261 273 272 256 244 239 245 240 235 223 216 200 190 280
344 342 340 341 337 332 333 328 326 327 320 320 320 320 318 319 324 327 329 320 319 314 313 312 295 280 277 276 250 239 258 263 269 270 251 250 239 230 217 204 196 197 222
348 347 344 345 339 330 333 330 329 331 328 325 328 330 331 329 333 338 342 343 327 320 318 321 313 306 290 290 290 253 272 269 250 259 241 227 219 207 193 195 201 201 215
356 354 350 349 342 340 347 343 340 340 336 333 340 342 343 341 345 345 347 345 341 324 317 321 325 316 307 310 311 312 325 312 249 255 232 221 209 219 268 119 216 246 245
357 357 354 350 344 342 350 347 343 343 345 340 348 348 348 352 355 355 349 346 345 337 328 335 338 334 331 338 345 341 349 10 53 130 271 269 242 207 115 84 47 4 328
358 352 352 356 350 349 346 340 343 346 348 346 348 345 342 342 345 344 341 341 344 342 338 344 350 349 348 345 349 350 357 45 82 183 303 294 293 111 114 121 156 51 22
357 352 353 356 353 353 353 351 344 344 343 341 336 334 333 334 337 339 340 343 340 332 333 341 353 352 355 358 8 10 14 28 30 36 83 132 131 128 139 133 183 196 187
356 356 355 354 353 354 356 358 4 1 0 358 352 345 342 341 342 348 351 350 351 351 352 354 356 353 351 355 2 6 5 10 16 26 40 72 173 163 158 142 154 172 174
353 346 346 348 350 348 350 357 357 3 8 7 7 4 1 355 355 356 355 358 3 7 12 6 358 357 353 354 356 359 353 350 7 28 13 344 177 156 150 176 170 157 166
350 345 346 345 344 343 343 345 348 356 358 2 4 8 7 6 8 9 7 9 11 14 13 8 2 357 349 347 352 358 358 1 9 11 4 343 200 174 171 189 186 164 173
346 344 348 349 348 345 345 352 360 0 1 355 355 359 3 6 11 14 13 14 9 2 1 1 357 352 346 348 356 1 357 355 359 358 348 339 352 153 161 177 160 177 175
352 352 354 354 353 354 356 1 4 4 0 357 356 350 351 358 3 3 6 6 6 358 353 353 354 356 356 356 359 356 350 349 355 355 348 350 6 63 88 163 142 149 186
346 347 351 355 355 356 357 358 358 359 357 356 350 349 358 359 356 357 359 358 356 352 348 348 351 356 358 353 348 345 342 344 352 355 352 350 360 33 53 57 67 92 117
342 337 341 348 356 3 3 3 2 2 360 356 351 352 359 3 0 359 355 351 348 350 349 349 353 355 352 345 341 342 342 341 343 348 346 349 2 17 39 69 87 107 118
345 351 353 355 3 6 9 10 7 2 357 353 351 353 355 359 359 357 352 348 351 354 358 1 360 357 354 346 343 344 331 321 319 319 329 344 356 8 54 82 90 108 116
359 355 357 4 11 15 13 7 3 359 358 357 357 356 353 352 352 349 347 348 350 354 356 357 357 353 349 347 347 344 335 329 333 333 328 350 16 38 55 76 81 91 104
5 356 4 11 9 9 8 1 359 356 354 354 354 352 349 348 347 345 346 349 349 353 354 354 354 353 348 347 348 348 351 358 5 18 21 38 80 69 64 77 93 99 95
357 358 7 10 11 8 3 354 350 348 348 349 349 346 342 342 340 340 344 350 350 350 350 351 350 351 347 349 351 353 1 17 29 30 44 64 91 90 88 87 92 99 99
Height
1438 1438 1438 1438 1438 1438 1438 1438 1438 1438 1438 1438 1438 1438 1438 1438 1439 1439 1439 1440 1440 1440 1441 1441 1441 1442 1443 1443 1444 1445 1445 1446 1445 1444 1445 1446 1446 1447 1447 1448 1448 1449 1449
1437 1437 1436 1436 1435 1435 1435 1436 1436 1436 1435 1435 1435 1435 1435 1435 1435 1435 1436 1436 1436 1436 1436 1437 1436 1437 1438 1439 1439 1440 1440 1441 1441 1440 1440 1441 1441 1442 1442 1443 1443 1444 1445
1435 1435 1434 1433 1433 1433 1433 1434 1433 1433 1432 1432 1432 1432 1432 1432 1432 1432 1433 1433 1433 1432 1432 1432 1432 1433 1433 1433 1434 1435 1436 1436 1437 1436 1436 1437 1437 1438 1438 1439 1439 1439 1440
1434 1433 1432 1432 1432 1432 1432 1431 1431 1430 1430 1429 1429 1429 1429 1429 1429 1429 1429 1429 1428 1428 1428 1428 1428 1428 1428 1428 1429 1430 1431 1432 1432 1432 1432 1433 1433 1434 1435 1434 1435 1435 1436
1433 1432 1431 1431 1431 1430 1430 1429 1428 1427 1427 1427 1427 1427 1427 1426 1426 1426 1426 1425 1425 1424 1424 1424 1424 1424 1424 1424 1424 1425 1426 1427 1427 1427 1428 1429 1429 1430 1430 1431 1431 1431 1432
1431 1431 1430 1430 1429 1428 1428 1427 1426 1425 1425 1425 1425 1424 1424 1423 1423 1423 1422 1421 1421 1420 1420 1419 1419 1419 1419 1420 1420 1421 1422 1422 1423 1423 1423 1424 1425 1426 1427 1427 1427 1427 1427
1430 1430 1429 1428 1427 1426 1425 1425 1424 1423 1423 1423 1422 1422 1421 1420 1420 1420 1419 1418 1417 1416 1416 1416 1415 1415 1415 1416 1416 1416 1417 1418 1419 1420 1419 1420 1421 1422 1423 1423 1424 1424 1424
1429 1428 1427 1427 1425 1424 1424 1423 1422 1422 1421 1420 1420 1419 1418 1417 1418 1417 1416 1414 1413 1413 1413 1412 1412 1412 1412 1413 1413 1413 1413 1414 1415 1415 1416 1417 1418 1419 1419 1420 1420 1421 1422
1427 1426 1426 1425 1424 1423 1422 1421 1421 1420 1419 1418 1418 1417 1415 1415 1415 1414 1413 1411 1410 1410 1409 1409 1409 1409 1410 1410 1410 1410 1410 1410 1411 1412 1413 1413 1414 1415 1415 1416 1417 1417 1417
1427 1426 1425 1424 1423 1422 1421 1420 1419 1418 1417 1416 1416 1415 1413 1412 1412 1411 1410 1408 1407 1407 1406 1406 1406 1407 1407 1407 1407 1407 1407 1407 1407 1408 1409 1409 1410 1411 1412 1412 1413 1413 1414
1426 1425 1424 1423 1422 1421 1420 1419 1417 1416 1415 1414 1413 1412 1411 1410 1410 1409 1408 1407 1406 1405 1404 1404 1403 1404 1404 1404 1404 1404 1404 1404 1404 1405 1405 1405 1406 1407 1408 1409 1410 1411 1411
1425 1424 1423 1422 1421 1420 1419 1417 1416 1415 1413 1412 1411 1410 1409 1409 1408 1407 1406 1405 1404 1403 1402 1402 1401 1401 1401 1402 1402 1401 1401 1402 1402 1401 1401 1402 1403 1404 1405 1406 1407 1408 1409
1424 1423 1422 1421 1420 1419 1417 1416 1415 1414 1412 1411 1410 1408 1407 1407 1406 1405 1404 1403 1402 1402 1401 1400 1399 1399 1399 1399 1399 1399 1398 1398 1399 1399 1398 1399 1400 1401 1402 1403 1404 1406 1407
1423 1422 1421 1421 1420 1418 1417 1416 1414 1413 1412 1410 1409 1408 1407 1406 1405 1404 1402 1401 1401 1400 1399 1398 1398 1397 1397 1397 1397 1396 1396 1396 1396 1396 1396 1397 1398 1399 1399 1401 1401 1402 1403
1423 1422 1421 1420 1419 1417 1416 1415 1414 1413 1413 1411 1410 1409 1407 1405 1404 1404 1402 1401 1400 1399 1398 1397 1396 1395 1395 1395 1395 1395 1394 1394 1395 1394 1394 1395 1395 1396 1397 1398 1399 1400 1401
1422 1421 1420 1419 1418 1417 1415 1415 1414 1413 1412 1411 1410 1409 1407 1406 1404 1403 1401 1400 1399 1398 1397 1396 1395 1395 1394 1394 1394 1393 1393 1393 1393 1393 1393 1393 1393 1394 1396 1397 1397 1398 1399
1421 1420 1419 1418 1417 1416 1415 1413 1412 1412 1412 1410 1409 1408 1407 1405 1404 1402 1401 1399 1398 1397 1396 1395 1395 1394 1394 1393 1393 1393 1392 1392 1392 1392 1392 1392 1393 1393 1394 1395 1396 1396 1397
1421 1420 1419 1418 1417 1416 1415 1413 1412 1410 1409 1409 1408 1407 1406 1405 1403 1402 1400 1398 1397 1396 1395 1395 1394 1394 1393 1393 1392 1392 1391 1391 1391 1391 1391 1391 1392 1392 1393 1394 1394 1395 1395
1420 1419 1418 1417 1416 1415 1414 1412 1411 1410 1409 1408 1407 1407 1406 1404 1403 1401 1400 1399 1397 1396 1395 1395 1394 1393 1393 1392 1392 1391 1391 1390 1390 1391 1390 1391 1391 1391 1392 1393 1393 1394 1394
1420 1419 1418 1417 1416 1415 1413 1412 1411 1411 1410 1409 1408 1407 1405 1404 1402 1401 1400 1399 1398 1397 1396 1395 1394 1393 1392 1392 1391 1391 1390 1390 1390 1390 1390 1390 1390 1390 1391 1391 1392 1392 1393
1420 1419 1418 1417 1416 1414 1413 1413 1412 1411 1410 1409 1408 1407 1406 1404 1403 1402 1401 1399 1398 1397 1396 1395 1394 1393 1392 1392 1391 1391 1390 1390 1390 1389 1389 1389 1390 1390 1390 1390 1391 1391 1392
1419 1418 1417 1416 1415 1414 1414 1413 1412 1411 1410 1409 1408 1407 1406 1405 1404 1402 1401 1400 1399 1398 1397 1395 1394 1393 1392 1392 1391 1391 1390 1390 1390 1389 1389 1389 1389 1390 1390 1390 1391 1391 1392
1418 1418 1417 1416 1415 1414 1413 1412 1412 1411 1410 1409 1408 1407 1406 1405 1404 1403 1401 1400 1399 1398 1397 1396 1395 1394 1393 1392 1392 1391 1391 1390 1390 1389 1389 1389 1389 1389 1390 1390 1391 1391 1392
1418 1417 1416 1415 1414 1414 1413 1412 1412 1411 1410 1409 1408 1407 1406 1405 1404 1403 1402 1401 1399 1398 1397 1396 1395 1394 1393 1393 1392 1391 1391 1391 1390 1390 1390 1389 1389 1389 1390 1390 1391 1392 1392
1417 1416 1415 1414 1414 1413 1413 1412 1411 1411 1410 1409 1408 1407 1406 1405 1404 1403 1402 1401 1399 1398 1397 1396 1395 1394 1394 1393 1392 1392 1391 1391 1391 1390 1390 1390 1390 1390 1390 1390 1391 1392 1393
1416 1415 1414 1414 1413 1413 1412 1412 1411 1411 1410 1409 1408 1407 1406 1405 1404 1403 1402 1401 1400 1398 1398 1397 1396 1395 1394 1393 1392 1392 1392 1391 1391 1391 1390 1390 1390 1390 1391 1391 1392 1393 1394